Location: Newark
(37.8333°N, 119.5000°W)
Time: 01:06:52
(UTC+00:00)

Altair - All Passes

Search period start: 24 August 2019 00:00
Search period end: 03 September 2019 00:00
Orbit: 1501 x 1683 km, 47.2° (Epoch: 22 August)

Date Brightness Start Highest point End Pass type
(mag) Time Alt. Az. Time Alt. Az. Time Alt. Az.
24 Aug - 08:12:44 10° S 08:20:43 28° SE 08:28:30 10° ENE visible
24 Aug - 10:14:40 10° SW 10:24:39 84° SE 10:34:16 10° ENE visible
24 Aug - 12:20:37 10° W 12:30:07 52° NNW 12:39:16 10° ENE visible
24 Aug - 14:27:04 10° WNW 14:36:22 53° NNE 14:45:22 10° E daylight
24 Aug - 16:32:17 10° WNW 16:41:41 82° SW 16:50:52 10° SE daylight
24 Aug - 18:38:21 10° WNW 18:45:20 25° SW 18:52:15 10° S daylight
25 Aug - 07:48:01 10° S 07:55:38 25° SE 08:03:05 10° ENE visible
25 Aug - 09:49:28 10° SW 09:59:28 80° SE 10:09:06 10° ENE visible
25 Aug - 11:55:16 10° W 12:04:50 54° NNW 12:14:03 10° ENE visible
25 Aug - 14:01:47 10° WNW 14:11:06 51° N 14:20:05 10° E daylight
25 Aug - 16:07:05 10° WNW 16:16:33 87° SSW 16:25:44 10° SE daylight
25 Aug - 18:12:55 10° WNW 18:20:17 27° SW 18:27:35 10° S daylight
26 Aug - 07:23:21 10° S 07:30:33 23° SE 07:37:37 10° E visible
26 Aug - 09:24:18 10° SW 09:34:17 75° SE 09:43:55 10° ENE visible
26 Aug - 11:29:55 10° W 11:39:33 56° NNW 11:48:51 10° ENE visible
26 Aug - 13:36:31 10° WNW 13:45:50 50° N 13:54:49 10° E daylight
26 Aug - 15:41:52 10° WNW 15:51:23 88° NE 16:00:36 10° ESE daylight
26 Aug - 17:47:32 10° WNW 17:55:14 30° SW 18:02:52 10° S daylight
27 Aug - 06:58:46 10° SSE 07:05:29 20° SE 07:12:05 10° E visible
27 Aug - 08:59:10 10° SW 09:09:07 70° SE 09:18:44 10° ENE visible
27 Aug - 11:04:33 10° W 11:14:17 58° NNW 11:23:39 10° ENE visible
27 Aug - 13:11:12 10° WNW 13:20:33 50° N 13:29:32 10° E daylight
27 Aug - 15:16:39 10° WNW 15:26:12 84° NNE 15:35:26 10° ESE daylight
27 Aug - 17:22:10 10° WNW 17:30:11 34° SW 17:38:05 10° S daylight
28 Aug - 06:34:18 10° SSE 06:40:25 18° SE 06:46:26 10° E visible
28 Aug - 08:34:03 10° SW 08:43:57 65° SE 08:53:33 10° ENE visible
28 Aug - 10:39:13 10° W 10:49:01 60° NNW 10:58:28 10° ENE visible
28 Aug - 12:45:53 10° WNW 12:55:15 49° N 13:04:16 10° E visible
28 Aug - 14:51:26 10° WNW 15:01:01 80° NNE 15:10:16 10° ESE daylight
28 Aug - 16:56:51 10° WNW 17:05:08 37° SW 17:13:16 10° SSE daylight
29 Aug - 06:09:58 10° SSE 06:15:22 16° ESE 06:20:42 10° E visible
29 Aug - 08:08:57 10° SW 08:18:48 61° SE 08:28:21 10° ENE visible
29 Aug - 10:13:52 10° WSW 10:23:45 62° NNW 10:33:17 10° ENE visible
29 Aug - 12:20:34 10° WNW 12:29:57 49° N 12:38:59 10° ENE visible
29 Aug - 14:26:14 10° WNW 14:35:50 76° NNE 14:45:04 10° ESE daylight
29 Aug - 16:31:33 10° WNW 16:40:04 41° SW 16:48:24 10° SSE daylight
30 Aug - 05:45:49 10° SSE 05:50:19 14° ESE 05:54:46 10° E night (unlit)
30 Aug - 07:43:53 10° SSW 07:53:39 56° SE 08:03:08 10° ENE visible
30 Aug - 09:48:33 10° WSW 09:58:29 65° NNW 10:08:05 10° ENE visible
30 Aug - 11:55:14 10° WNW 12:04:39 48° N 12:13:43 10° ENE visible
30 Aug - 14:01:00 10° WNW 14:10:38 72° NNE 14:19:53 10° ESE daylight
30 Aug - 16:06:16 10° WNW 16:15:00 45° SW 16:23:31 10° SSE daylight
31 Aug - 05:22:03 10° SE 05:25:16 12° ESE 05:28:28 10° ESE night (unlit)
31 Aug - 07:18:51 10° SSW 07:28:30 52° SE 07:37:54 10° ENE visible
31 Aug - 09:23:14 10° WSW 09:33:14 68° NNW 09:42:54 10° ENE visible
31 Aug - 11:29:54 10° WNW 11:39:21 48° N 11:48:27 10° ENE visible
31 Aug - 13:35:46 10° WNW 13:45:25 69° NNE 13:54:40 10° ESE daylight
31 Aug - 15:40:59 10° WNW 15:49:55 49° SW 15:58:35 10° SSE daylight
01 Sep - 06:53:50 10° SSW 07:03:22 48° SE 07:12:39 10° ENE visible
01 Sep - 08:57:55 10° WSW 09:07:59 72° NNW 09:17:43 10° ENE visible
01 Sep - 11:04:33 10° WNW 11:14:03 49° N 11:23:12 10° ENE visible
01 Sep - 13:10:32 10° WNW 13:20:11 65° NNE 13:29:26 10° ESE daylight
01 Sep - 15:15:43 10° WNW 15:24:49 53° SW 15:33:38 10° SSE daylight
01 Sep - 17:25:13 10° WSW 17:27:49 11° WSW 17:30:25 10° SW daylight
02 Sep - 06:28:52 10° SSW 06:38:13 44° SE 06:47:24 10° ENE visible
02 Sep - 08:32:38 10° WSW 08:42:45 75° NNW 08:52:32 10° ENE visible
02 Sep - 10:39:11 10° WNW 10:48:44 49° N 10:57:57 10° ENE visible
02 Sep - 12:45:17 10° WNW 12:54:56 63° NNE 13:04:12 10° ESE visible
02 Sep - 14:50:28 10° WNW 14:59:43 58° SW 15:08:39 10° SSE daylight
02 Sep - 16:58:50 10° W 17:02:49 13° WSW 17:06:47 10° SSW daylight
